When you browse on this site, cookies collect data to enhance your experience and personalize the content and advertising you see.
Visit our Privacy Policy to learn more. By continuing to use the site, you agree to this use of cookies and data.
  • Em Portugal
  • Lista de países
  • Para 7 dias
  • Temperatura da água
  • Mapa do tempo
  • Widgets de tempo
  • user-avatar
    Iniciar Sessão

    Previsão horária em Lisboa

    Hoje, 19 Setembro, Quinta-feira

    Tempo Temperatura Precipitação Vento Pressão Humidade
    00:00 +17°C° 0 mm 2 m/s 759 mmHg 88%
    01:00 +17°C° 0 mm 2 m/s 758 mmHg 89%
    02:00 +18°C° 0 mm 1 m/s 758 mmHg 89%
    03:00 +18°C° 0 mm 1 m/s 758 mmHg 90%
    04:00 +16°C° 0 mm 1 m/s 758 mmHg 90%
    05:00 +16°C° 0 mm 1 m/s 758 mmHg 91%
    06:00 +19°C° 0 mm 1 m/s 758 mmHg 84%
    07:00 +21°C° 0 mm 1 m/s 759 mmHg 77%
    08:00 +22°C° 0 mm 1 m/s 759 mmHg 71%
    09:00 +24°C° 0 mm 2 m/s 759 mmHg 64%
    10:00 +25°C° 0 mm 2 m/s 758 mmHg 57%
    11:00 +27°C° 0 mm 3 m/s 758 mmHg 50%
    12:00 +27°C° 0 mm 3 m/s 758 mmHg 50%
    13:00 +27°C° 0 mm 4 m/s 758 mmHg 51%
    14:00 +27°C° 0 mm 5 m/s 757 mmHg 51%
    15:00 +26°C° 0 mm 5 m/s 757 mmHg 57%
    16:00 +23°C° 0 mm 4 m/s 757 mmHg 63%
    17:00 +22°C° 0 mm 4 m/s 757 mmHg 70%
    18:00 +21°C° 0 mm 4 m/s 757 mmHg 76%
    19:00 +19°C° 0 mm 4 m/s 758 mmHg 83%
    20:00 +18°C° 0 mm 3 m/s 758 mmHg 90%
    21:00 +18°C° 0 mm 3 m/s 758 mmHg 91%
    22:00 +18°C° 0 mm 3 m/s 757 mmHg 91%
    23:00 +17°C° 0 mm 2 m/s 757 mmHg 92%

    Amanhã, 20 Setembro, Sexta-feira

    Tempo Temperatura Precipitação Vento Pressão Humidade
    00:00 +17°C° 0 mm 2 m/s 757 mmHg 92%
    01:00 +17°C° 0 mm 2 m/s 757 mmHg 92%
    02:00 +17°C° 0 mm 2 m/s 757 mmHg 92%
    03:00 +18°C° 0 mm 1 m/s 756 mmHg 92%
    04:00 +18°C° 0 mm 1 m/s 756 mmHg 91%
    05:00 +19°C° 0 mm 1 m/s 756 mmHg 91%
    06:00 +19°C° 0.1 mm 1 m/s 756 mmHg 88%
    07:00 +20°C° 0.1 mm 1 m/s 756 mmHg 85%
    08:00 +18°C° 0.1 mm 0 m/s 756 mmHg 81%
    09:00 +22°C° 0 mm 1 m/s 756 mmHg 72%
    10:00 +24°C° 0 mm 1 m/s 756 mmHg 63%
    11:00 +25°C° 0 mm 2 m/s 756 mmHg 55%
    12:00 +26°C° 0 mm 3 m/s 755 mmHg 52%
    13:00 +26°C° 0 mm 3 m/s 755 mmHg 50%
    14:00 +27°C° 0 mm 4 m/s 755 mmHg 48%
    15:00 +26°C° 0 mm 4 m/s 755 mmHg 54%
    16:00 +23°C° 0 mm 4 m/s 754 mmHg 61%
    17:00 +22°C° 0 mm 4 m/s 754 mmHg 68%
    18:00 +21°C° 0 mm 4 m/s 754 mmHg 75%
    19:00 +20°C° 0 mm 4 m/s 755 mmHg 83%
    20:00 +19°C° 0 mm 4 m/s 755 mmHg 91%
    21:00 +19°C° 0 mm 4 m/s 755 mmHg 92%
    22:00 +19°C° 0 mm 4 m/s 754 mmHg 94%
    23:00 +19°C° 0 mm 4 m/s 754 mmHg 95%

    Depois de amanhã, 21 Setembro, Sábado

    Tempo Temperatura Precipitação Vento Pressão Humidade
    00:00 +19°C° 0 mm 4 m/s 753 mmHg 94%
    01:00 +20°C° 0 mm 4 m/s 753 mmHg 94%
    02:00 +20°C° 0 mm 5 m/s 753 mmHg 93%
    03:00 +20°C° 0.2 mm 5 m/s 753 mmHg 93%
    04:00 +20°C° 0.2 mm 5 m/s 753 mmHg 92%
    05:00 +20°C° 0.2 mm 5 m/s 752 mmHg 91%
    06:00 +20°C° 0.8 mm 5 m/s 753 mmHg 90%
    07:00 +21°C° 0.8 mm 6 m/s 753 mmHg 89%
    08:00 +21°C° 0.8 mm 6 m/s 753 mmHg 88%
    09:00 +21°C° 2.1 mm 6 m/s 753 mmHg 88%
    10:00 +20°C° 2.1 mm 6 m/s 753 mmHg 89%
    11:00 +20°C° 2.1 mm 6 m/s 753 mmHg 89%
    12:00 +20°C° 0.4 mm 5 m/s 753 mmHg 85%
    13:00 +21°C° 0.4 mm 5 m/s 753 mmHg 81%
    14:00 +21°C° 0.4 mm 4 m/s 753 mmHg 77%
    15:00 +21°C° 0 mm 4 m/s 754 mmHg 75%
    16:00 +20°C° 0 mm 4 m/s 754 mmHg 73%
    17:00 +20°C° 0 mm 4 m/s 754 mmHg 71%
    18:00 +19°C° 0 mm 3 m/s 755 mmHg 76%
    19:00 +18°C° 0 mm 3 m/s 756 mmHg 80%
    20:00 +17°C° 0 mm 2 m/s 756 mmHg 85%
    21:00 +17°C° 0 mm 2 m/s 756 mmHg 86%
    22:00 +17°C° 0 mm 2 m/s 756 mmHg 87%
    23:00 +17°C° 0 mm 2 m/s 757 mmHg 88%

    22 Setembro, Domingo

    Tempo Temperatura Precipitação Vento Pressão Humidade
    00:00 +17°C° 0 mm 2 m/s 757 mmHg 88%
    01:00 +16°C° 0 mm 2 m/s 757 mmHg 87%
    02:00 +16°C° 0 mm 2 m/s 757 mmHg 87%
    03:00 +16°C° 0 mm 2 m/s 757 mmHg 87%
    04:00 +16°C° 0 mm 2 m/s 758 mmHg 87%
    05:00 +15°C° 0 mm 2 m/s 758 mmHg 86%
    06:00 +17°C° 0 mm 2 m/s 758 mmHg 78%
    07:00 +18°C° 0 mm 2 m/s 759 mmHg 70%
    08:00 +20°C° 0 mm 2 m/s 759 mmHg 62%
    09:00 +21°C° 0 mm 3 m/s 760 mmHg 57%
    10:00 +22°C° 0 mm 3 m/s 760 mmHg 51%
    11:00 +24°C° 0 mm 3 m/s 760 mmHg 45%
    12:00 +24°C° 0 mm 3 m/s 760 mmHg 44%
    13:00 +23°C° 0 mm 4 m/s 760 mmHg 43%
    14:00 +25°C° 0 mm 4 m/s 759 mmHg 43%
    15:00 +22°C° 0 mm 5 m/s 759 mmHg 48%
    16:00 +21°C° 0 mm 5 m/s 760 mmHg 54%
    17:00 +20°C° 0 mm 5 m/s 760 mmHg 60%
    18:00 +19°C° 0 mm 4 m/s 760 mmHg 65%
    19:00 +18°C° 0 mm 4 m/s 761 mmHg 70%
    20:00 +17°C° 0 mm 3 m/s 761 mmHg 75%
    21:00 +17°C° 0 mm 3 m/s 761 mmHg 77%
    22:00 +17°C° 0 mm 3 m/s 761 mmHg 79%
    23:00 +16°C° 0 mm 2 m/s 761 mmHg 81%

    23 Setembro, Segunda-feira

    Tempo Temperatura Precipitação Vento Pressão Humidade
    00:00 +16°C° 0 mm 2 m/s 761 mmHg 82%
    01:00 +16°C° 0 mm 2 m/s 761 mmHg 82%
    02:00 +16°C° 0 mm 2 m/s 761 mmHg 83%
    03:00 +15°C° 0 mm 1 m/s 761 mmHg 83%
    04:00 +15°C° 0 mm 1 m/s 761 mmHg 83%
    05:00 +15°C° 0 mm 1 m/s 761 mmHg 83%
    06:00 +18°C° 0 mm 1 m/s 761 mmHg 74%
    07:00 +19°C° 0 mm 1 m/s 761 mmHg 65%
    08:00 +21°C° 0 mm 1 m/s 761 mmHg 56%
    09:00 +23°C° 0 mm 2 m/s 761 mmHg 48%
    10:00 +25°C° 0 mm 2 m/s 761 mmHg 39%
    11:00 +27°C° 0 mm 2 m/s 761 mmHg 31%
    12:00 +27°C° 0 mm 2 m/s 761 mmHg 31%
    13:00 +27°C° 0 mm 3 m/s 760 mmHg 31%
    14:00 +28°C° 0 mm 3 m/s 760 mmHg 31%
    15:00 +26°C° 0 mm 4 m/s 760 mmHg 37%
    16:00 +25°C° 0 mm 4 m/s 760 mmHg 43%
    17:00 +22°C° 0 mm 5 m/s 759 mmHg 49%
    18:00 +21°C° 0 mm 4 m/s 760 mmHg 54%
    19:00 +19°C° 0 mm 4 m/s 760 mmHg 60%
    20:00 +18°C° 0 mm 3 m/s 761 mmHg 65%
    21:00 +18°C° 0 mm 3 m/s 760 mmHg 67%
    22:00 +17°C° 0 mm 2 m/s 760 mmHg 68%
    23:00 +17°C° 0 mm 2 m/s 760 mmHg 70%

    24 Setembro, Terça-feira

    Tempo Temperatura Precipitação Vento Pressão Humidade
    00:00 +17°C° 0 mm 2 m/s 760 mmHg 69%
    01:00 +16°C° 0 mm 1 m/s 760 mmHg 68%
    02:00 +16°C° 0 mm 1 m/s 759 mmHg 68%
    03:00 +16°C° 0 mm 1 m/s 759 mmHg 67%
    04:00 +16°C° 0 mm 1 m/s 759 mmHg 66%
    05:00 +16°C° 0 mm 1 m/s 759 mmHg 64%
    06:00 +19°C° 0 mm 1 m/s 760 mmHg 58%
    07:00 +20°C° 0 mm 1 m/s 760 mmHg 51%
    08:00 +22°C° 0 mm 1 m/s 760 mmHg 45%
    09:00 +24°C° 0 mm 2 m/s 760 mmHg 40%
    10:00 +26°C° 0 mm 2 m/s 760 mmHg 35%
    11:00 +28°C° 0 mm 3 m/s 761 mmHg 30%
    12:00 +29°C° 0 mm 3 m/s 760 mmHg 30%
    13:00 +29°C° 0 mm 4 m/s 760 mmHg 30%
    14:00 +29°C° 0 mm 4 m/s 759 mmHg 30%
    15:00 +28°C° 0 mm 4 m/s 759 mmHg 36%
    16:00 +26°C° 0 mm 5 m/s 759 mmHg 42%
    17:00 +23°C° 0 mm 5 m/s 759 mmHg 48%
    18:00 +22°C° 0 mm 4 m/s 760 mmHg 58%
    19:00 +20°C° 0 mm 4 m/s 760 mmHg 67%
    20:00 +18°C° 0 mm 4 m/s 760 mmHg 77%
    21:00 +18°C° 0 mm 3 m/s 760 mmHg 80%
    22:00 +18°C° 0 mm 3 m/s 760 mmHg 84%
    23:00 +17°C° 0 mm 3 m/s 759 mmHg 88%
    Mostrar mais